CDT,Max TemperatureF,Mean TemperatureF,Min TemperatureF,Max Dew PointF,MeanDew PointF,Min DewpointF,Max Humidity, Mean Humidity, Min Humidity, Max Sea Level PressureIn, Mean Sea Level PressureIn, Min Sea Level PressureIn, Max VisibilityMiles, Mean VisibilityMiles, Min VisibilityMiles, Max Wind SpeedMPH, Mean Wind SpeedMPH, Max Gust SpeedMPH,PrecipitationIn, CloudCover, Events, WindDirDegrees
2013-9-1,99,87,74,76,72,67,87,63,38,29.92,29.87,29.83,10,10,10,21,9,25,0.00,2,,152
2013-9-2,98,88,77,76,73,64,88,67,45,29.95,29.90,29.86,10,10,10,22,8,26,T,2,Rain-Thunderstorm,142
2013-9-3,98,87,75,74,71,67,87,63,38,29.99,29.93,29.89,10,10,10,16,6,24,0.00,2,Thunderstorm,131
2013-9-4,97,86,75,74,71,67,87,63,39,30.03,29.98,29.94,10,10,10,18,7,22,0.00,2,,107
2013-9-5,94,86,78,77,74,71,79,64,49,30.04,30.01,29.98,10,9,2,20,8,25,0.38,3,Rain,99
2013-9-6,95,86,77,77,74,71,91,70,49,30.05,29.99,29.95,10,10,10,17,7,24,0.03,2,Rain,89
2013-9-7,93,86,78,77,74,72,91,72,52,30.00,29.95,29.90,10,10,9,16,7,20,0.11,4,Rain-Thunderstorm,69
2013-9-8,87,82,76,76,73,72,94,82,70,29.97,29.91,29.87,10,9,5,17,6,24,0.69,3,Rain-Thunderstorm,87
2013-9-9,90,84,77,75,73,71,85,71,56,29.94,29.90,29.87,10,9,0,24,11,31,0.65,5,Rain-Thunderstorm,118
2013-9-10,88,82,76,76,74,72,85,74,63,30.02,29.97,29.91,10,8,2,22,8,28,0.79,5,Rain-Thunderstorm,134
2013-9-11,89,83,77,76,75,73,88,78,68,30.04,30.00,29.96,10,10,9,28,6,36,0.15,3,Rain-Thunderstorm,113
2013-9-12,92,85,77,77,74,71,91,72,52,30.01,29.95,29.89,10,10,7,20,9,24,0.17,2,Rain,69
2013-9-13,93,85,77,75,73,71,88,70,52,29.92,29.87,29.81,10,10,10,22,11,26,0.00,2,,56
2013-9-14,94,86,78,77,74,71,85,69,52,29.88,29.85,29.81,10,10,10,23,12,31,T,3,,67
2013-9-15,92,87,81,76,75,74,79,69,59,29.93,29.88,29.84,10,10,2,28,16,35,0.19,4,Rain,82
2013-9-16,89,84,78,77,75,73,91,80,68,29.97,29.93,29.87,10,8,1,26,13,35,1.18,5,Rain-Thunderstorm,98
2013-9-17,92,86,79,78,76,72,91,76,60,29.99,29.94,29.90,10,10,3,31,9,38,0.62,4,Rain,79
2013-9-18,90,84,78,77,75,73,91,77,63,29.97,29.92,29.87,10,10,2,21,9,26,0.05,3,Rain,104
2013-9-19,92,85,78,77,76,75,91,76,60,29.90,29.86,29.81,10,10,10,24,8,30,0.11,2,Rain,111
2013-9-20,90,82,74,79,77,73,91,81,70,29.82,29.77,29.70,10,8,0,25,9,32,0.85,6,Rain-Thunderstorm,168
2013-9-21,80,77,74,74,71,66,94,81,67,29.83,29.78,29.72,10,9,2,25,14,31,0.17,7,Rain-Thunderstorm,360
2013-9-22,87,78,68,65,62,57,84,60,36,29.84,29.79,29.74,10,10,10,17,9,28,0.00,1,,357
2013-9-23,92,79,66,72,68,62,93,71,49,29.80,29.77,29.72,10,10,10,14,7,18,0.00,2,,2
2013-9-24,95,83,71,73,69,65,93,65,36,29.89,29.83,29.79,10,10,10,13,7,20,0.00,1,,304
2013-9-25,97,85,73,73,67,53,87,56,24,29.88,29.83,29.78,10,10,10,14,6,18,0.00,1,,175
2013-9-26,94,84,74,76,72,68,93,70,46,29.87,29.83,29.80,10,10,8,17,7,22,0.00,2,,146
2013-9-27,95,88,80,78,76,74,85,69,52,29.88,29.85,29.81,10,10,10,23,14,30,T,3,,138
2013-9-28,95,88,81,79,76,75,88,71,53,29.94,29.89,29.85,10,10,10,24,14,32,T,3,,146
2013-9-29,94,86,77,75,73,71,90,70,49,30.01,29.93,29.86,10,10,1,18,5,23,0.17,4,Rain-Thunderstorm,298
2013-9-30,92,83,74,77,74,70,94,77,59,29.91,29.86,29.79,10,10,10,14,6,17,0.00,3,,71